GW3611 Weather Reports


time (UTC)temp
C
wind
direction
speed
KPH
gust
KPH
rain 1hr
cm
rain 24hr
cm
rain mn
cm
humidity
%
barometer
mb
20260503220036 16 60 0.0 3.2 0.00 0.00 0.00 42 1014.9
20260503214550 16 60 0.0 3.2 0.00 0.00 0.00 39 1015.0
20260503213053 17 60 0.0 4.8 0.00 0.00 0.00 40 1015.0
20260503211554 17 59 0.0 3.2 0.00 0.00 0.00 43 1015.0
20260503210058 17 46 0.0 4.8 0.00 0.00 0.00 39 1015.1
20260503204506 17 74 3.2 11.3 0.00 0.00 0.00 38 1015.4
20260503203044 17 159 0.0 9.7 0.00 0.00 0.00 40 1015.3
20260503201551 17 137 0.0 6.4 0.00 0.00 0.00 42 1015.6
20260503200009 16 49 0.0 6.4 0.00 0.00 0.00 38 1015.8
20260503194538 17 9 0.0 8.0 0.00 0.00 0.00 39 1016.1
20260503193050 17 185 1.6 9.7 0.00 0.00 0.00 38 1016.3
20260503191559 17 348 1.6 8.0 0.00 0.00 0.00 35 1016.4
20260503190027 17 351 0.0 8.0 0.00 0.00 0.00 37 1016.6
20260503184604 18 335 0.0 8.0 0.00 0.00 0.00 36 1016.9
20260503183100 17 287 0.0 8.0 0.00 0.00 0.00 39 1017.0
20260503181555 17 261 0.0 4.8 0.00 0.00 0.00 38 1017.0
20260503180056 16 256 1.6 6.4 0.00 0.00 0.00 39 1017.2
20260503174547 16 253 0.0 8.0 0.00 0.00 0.00 38 1017.5
20260503173059 16 299 0.0 4.8 0.00 0.00 0.00 36 1017.6
20260503171612 15 304 0.0 1.6 0.00 0.00 0.00 42 1018.1
20260503110104 1 5 0.0 0.0 0.00 0.00 0.00 89 1018.0
20260503100107 1 5 0.0 0.0 0.00 0.00 0.00 90 1017.2
20260503081540 1 5 0.0 0.0 0.00 0.00 0.00 89 1016.0
20260503080107 1 5 0.0 0.0 0.00 0.00 0.00 89 1016.0
20260503071604 1 5 0.0 0.0 0.00 0.00 0.00 85 1015.3
20260503054541 3 5 0.0 0.0 0.00 0.00 0.00 82 1015.3
20260503053053 3 5 0.0 0.0 0.00 0.00 0.00 83 1015.2
20260503051558 3 5 0.0 0.0 0.00 0.00 0.00 83 1015.3
20260503050045 3 5 0.0 0.0 0.00 0.00 0.00 83 1015.0
20260503044555 3 5 0.0 0.0 0.00 0.00 0.00 82 1015.0
20260503043037 3 5 0.0 0.0 0.00 0.00 0.00 80 1015.0
20260503041545 3 5 0.0 0.0 0.00 0.00 0.00 79 1014.9
20260503034504 4 5 0.0 0.0 0.00 0.00 0.00 77 1014.5
20260503033023 5 5 0.0 0.0 0.00 0.00 0.00 76 1014.4
20260503031544 5 5 0.0 0.0 0.00 0.00 0.00 74 1014.3
20260503030054 5 5 0.0 0.0 0.00 0.00 0.00 73 1014.3
20260503024559 6 5 0.0 0.0 0.00 0.00 0.00 70 1014.2
20260503023004 6 5 0.0 0.0 0.00 0.00 0.00 67 1014.2
20260503021544 7 5 0.0 0.0 0.00 0.00 0.00 66 1013.7
20260503020056 7 5 0.0 0.0 0.00 0.00 0.00 62 1013.6
20260503014556 7 5 0.0 0.0 0.00 0.00 0.00 63 1013.5
20260503013006 8 5 0.0 0.0 0.00 0.00 0.00 63 1013.1
20260503011551 8 5 0.0 0.0 0.00 0.00 0.00 60 1013.0
20260503010058 8 5 0.0 0.0 0.00 0.00 0.00 57 1012.9
20260503004553 9 5 0.0 0.0 0.00 0.00 0.00 56 1012.7
20260503003105 9 5 0.0 0.0 0.00 0.00 0.00 55 1012.4
20260503001604 10 5 0.0 0.0 0.00 0.00 0.00 51 1012.3
20260503000119 10 5 0.0 0.0 0.00 0.00 0.00 48 1012.0
20260502234517 11 5 0.0 1.6 0.00 0.00 0.00 49 1011.7
20260502233044 11 5 0.0 1.6 0.00 0.00 0.00 47 1011.4
20260502231555 12 5 0.0 4.8 0.00 0.00 0.00 44 1011.2
20260502230007 12 5 0.0 4.8 0.00 0.00 0.00 44 1011.1
20260502224532 13 5 0.0 8.0 0.00 0.00 0.00 42 1011.0
20260502223053 13 5 0.0 8.0 0.00 0.00 0.00 41 1010.9
20260502221534 13 12 0.0 4.8 0.00 0.00 0.00 42 1010.8